Regional Weather Roundup
Issued by NWS

Home | Current Version | Previous Version | Text Only | Print | Product List | Glossary On
Versions: 1 2 3 4 5 6 7 8 9 10 11 12 13 14 15 16 17 18 19 20 21 22 23 24 25 26 27 28 29 30 31 32 33 34 35 36 37 38 39 40 41 42 43 44 45 46 47 48 49 50
000
ASPQ40 PGUM 222212
RWRPQ
WEATHER ROUNDUP FOR THE MARIANAS AND MICRONESIA
NATIONAL WEATHER SERVICE TIYAN GU
800 AM CHST THU MAR 23 2017

GUZ001>004-222300-
MARIANA ISLANDS-

CITY           SKY/WX    TMP DP  RH WIND       PRES   REMARKS
GUAM AIRPORT   CLOUDY    81  79  94 NE6       29.97R
ANDERSEN AFB   PTSUNNY   79  75  89 NE8       29.99R
ROTA AIRPORT   PTSUNNY   77  73  88 E6        29.97R
TINIAN AP      PTSUNNY   79  75  89 E7        29.95R
SAIPAN AP      PTSUNNY   79  75  89 NE10      29.97R

$$

PMZ161-222300-
REPUBLIC OF PALAU-

CITY           SKY/WX    TMP DP  RH WIND       PRES   REMARKS
KOROR AP       PTSUNNY   81  73  78 E6        29.88R
KOROR WSO      CLOUDY    81  73  78 NE6       29.89R

$$

PMZ171>174-222300-
FEDERATED STATES OF MICRONESIA-

CITY           SKY/WX    TMP DP  RH WIND       PRES   REMARKS
YAP AIRPORT    PTSUNNY   82  77  83 VRB6      29.90R HX  91
CHUUK AP       CLOUDY    84  81  89 NE9       29.88R HX  98
POHNPEI AP     CLOUDY    82  77  83 SE5       29.85  HX  91
POHNPEI WSO    CLOUDY    84  77  79 E5        29.90R HX  94
KOSRAE AP      NOT AVBL

$$

PMZ181-222300-
REPUBLIC OF THE MARSHALL ISLANDS-

CITY           SKY/WX    TMP DP  RH WIND       PRES   REMARKS
KWAJALEIN AP   SUNNY     84  75  74 E15       29.90S HX  92
MAJURO AP      PTSUNNY   84  75  74 E10       29.88R HX  92
MAJURO WSO     PTSUNNY   86  77  74 E9        29.87R HX  97

$$




USA.gov is the U.S. government's official web portal to all federal, state and local government web resources and services.